STARLINK-37988, 69748

Orbit data source: Space-Track

STARLINK-37988, 69748 is a payload satellite owned by SpaceX/Seattle (US) in SSO that was launched on Thu, 02 Jul 2026 UTC via an FALCON 9 launch vehicle from the Air Force Western Test Range (AFWTR). Payload-class satellites include a variety of spacecraft equipped with specific instruments for various scientific and technological missions. These include communications satellites like Starlink; space stations such as the ISS; scientific satellites like the Hubble; Earth observation satellites from companies like Planet Labs, Umbra, and HawkEye 360; GPS; miniature CubeSats for education and research; and military/defense satellites.

Not visible in the next 10 days
Identifier
69748, 2026-150K
Orbit
SSO
Country
Flag of USUS
Related business
Manufacturer
SpaceX/Seattle
Mission
Operational spacecraft
Bus & Motor
STARLINK V2MO, Unknown motor
Mass
575 kg wet, ~530 kg dry
Launch date (UTC)
2026-07-02 (3 weeks ago)
Launch vehicle
FALCON 9
Launch site
Air Force Western Test Range (AFWTR)
Object type
Payload
Rocket body
Debris
Shape & HBR
Unknown shape, 17.7 m
Radar Cross Section
Large (>1 m²)

Expand to show TLE details & history
Last TLE update: 17 hours ago

TLE from 17 hours ago
0 STARLINK-37988
1 69748U 26150K   26202.50572139  .00305760  00000-0  19687-2 0  9996
2 69748  97.2843  41.1640 0001233 113.8702 246.2693 15.75302625  4312
Epoch: 2026-07-21T12:08Z
TLE epoch observation values (Epoch: 2026-07-21T12:08:14.328Z)
Latitude
0.00004°
Longitude
-80.17015°
Altitude
347.272 km
Speed
7.7 km/s
True Right ascension
02h 44m 39s
True Declination
0° 00' 00"
Sunlit
Object was in daylight at epoch
Visualization orbit readout
Latitude
Unknown
Longitude
Unknown
Altitude
Unknown
Speed
Unknown
Apparent Right ascension
Unknown
Apparent Declination
Unknown
Sunlit
N/A
Visualization observer readout
Local Sidereal Time
18:31:33
Azimuth
Unknown
Elevation
Unknown
Doppler factor
Unknown
Orbital elements
Apogee altitude
341.486 km
Perigee altitude
339.829 km
Semi-major axis
6,718.794 km
Eccentricity
0.00012
Inclination
97.2843°
RAAN
41.164°
Arg. of periapsis
113.8702°
True anomaly
246.25637°
Mean anomaly
246.2693°
Eccentric anomaly
246.26283°
Mean motion
3.941 °/min
Orbital period
91.35 mins
BSTAR
0.0019687
Loading maneuver chart data...
Computing Atmospheric mass density...
Loading historical data...
Loading historical data...
Loading historical data...
Loading historical data...
Loading historical data...
Loading historical data...
Loading historical data...

Documentation

Showing up to 5 results
|